Temperature
21 20 20 19 19 19 18 18 18 17 17 17 17 17 17 17 17 17 16 16 16 16 16 16 16 16 16 16 15 15 15 15 15 14 14 13 13 13 13 13 12 12 12
21 20 20 19 19 19 19 18 18 17 17 17 17 17 16 16 16 16 16 16 16 16 16 16 15 15 15 15 15 15 15 15 15 14 13 13 13 13 12 12 12 12 12
21 20 20 19 19 19 18 18 18 17 17 17 17 16 16 16 16 16 16 16 16 15 15 15 15 15 15 15 15 14 14 14 14 14 13 12 12 12 12 12 11 11 11
21 20 20 19 19 18 18 18 17 17 17 17 16 16 16 16 16 16 16 15 15 15 15 15 14 14 14 14 14 14 14 14 14 13 13 12 12 11 11 11 11 11 11
21 20 20 19 19 18 18 18 17 17 17 16 16 16 16 16 15 15 15 15 15 15 14 14 14 14 14 14 14 14 13 13 13 13 12 12 11 11 11 11 10 10 10
20 20 19 19 19 18 18 17 17 17 16 16 16 16 16 15 15 15 15 15 14 14 14 14 14 14 13 13 13 13 13 13 13 12 12 11 11 11 11 10 10 10 10
20 20 19 19 18 18 18 17 17 17 16 16 16 15 15 15 15 15 14 14 14 14 14 14 13 13 13 13 12 12 12 12 12 12 12 11 11 11 10 10 10 10 10
20 19 19 18 18 18 18 17 17 16 16 16 15 15 15 15 14 14 14 14 14 13 13 13 13 13 12 12 12 12 12 11 11 11 11 11 11 10 10 10 10 10 9
19 19 18 18 18 18 17 17 17 16 16 15 15 15 15 14 14 14 14 14 13 13 13 12 12 12 12 12 12 12 11 11 11 11 10 10 10 10 10 10 10 10 9
19 18 18 18 17 17 17 16 16 16 15 15 15 14 14 14 14 13 13 13 13 13 12 12 12 12 11 11 11 11 11 11 10 10 10 10 10 10 10 10 9 9 9
19 18 18 17 17 16 16 16 15 15 15 14 14 14 14 13 13 13 13 12 12 12 12 12 11 11 11 11 11 11 10 10 10 10 10 10 10 9 9 9 9 9 9
18 18 17 17 16 16 16 15 15 14 14 14 14 13 13 13 13 12 12 12 12 12 12 11 11 11 11 10 10 10 10 10 10 10 9 9 9 9 9 9 9 9 9
17 17 17 16 16 15 15 15 14 14 14 13 13 13 13 13 12 12 12 11 11 11 11 11 11 10 10 10 10 10 10 10 10 9 9 9 9 9 9 9 9 9 8
17 17 16 16 15 15 15 14 14 14 13 13 13 13 13 12 12 12 11 11 11 11 11 10 10 10 10 10 10 10 10 9 9 9 9 9 9 9 9 9 8 8 8
17 16 16 15 15 14 14 14 14 14 14 13 13 13 13 12 12 12 11 11 11 11 10 10 10 10 10 10 10 10 9 9 9 9 9 9 9 9 8 8 8 8 8
16 16 15 15 14 14 14 14 13 13 13 13 13 12 12 12 12 11 11 11 11 10 10 10 10 10 10 10 10 9 9 9 9 9 9 9 9 8 8 8 8 8 8
16 15 15 14 14 14 14 14 13 13 13 12 12 12 12 12 11 11 11 11 10 10 10 10 10 10 10 10 9 9 9 9 9 9 8 8 8 8 8 8 8 8 8
15 15 15 14 14 14 14 13 13 13 13 12 12 12 12 11 11 11 11 11 10 10 10 10 10 10 10 9 9 9 9 9 9 9 8 8 8 8 8 8 8 8 8
15 15 14 14 14 13 13 13 13 13 12 12 12 12 11 11 11 11 11 11 11 10 10 10 10 10 9 9 9 9 9 9 9 8 8 8 8 8 8 8 8 8 7
14 14 14 13 13 13 13 13 12 12 12 12 12 12 11 11 11 11 11 11 10 10 10 10 10 10 9 9 9 9 9 8 8 8 8 8 8 8 8 7 7 7 7
14 13 13 13 13 13 12 12 12 12 12 12 12 11 11 11 11 11 11 11 11 10 10 10 10 10 9 9 9 9 8 8 8 8 8 8 8 7 7 7 7 7 7
13 13 13 13 13 12 12 12 12 12 12 12 11 11 11 11 11 11 11 10 10 10 10 10 9 9 9 9 9 8 8 8 8 8 8 7 7 7 7 7 7 7 7
13 13 12 12 12 12 12 11 11 11 11 11 11 11 11 11 10 10 10 10 10 10 10 9 9 9 9 9 8 8 8 8 8 8 7 7 7 7 7 7 7 6 6
12 12 12 12 12 11 11 11 11 11 11 11 11 10 10 10 10 10 10 10 9 9 9 9 9 9 8 8 8 8 8 8 7 7 7 7 7 7 6 6 6 6 6
12 12 12 11 11 11 11 11 11 10 10 10 10 10 10 10 10 10 10 9 9 9 9 9 8 8 8 8 8 8 7 7 7 7 7 7 6 6 6 6 6 6 5
12 11 11 11 11 11 11 11 10 10 10 10 10 10 10 10 10 10 9 9 9 9 9 8 8 8 8 8 7 7 7 7 7 7 6 6 6 6 6 5 5 5 5
Wind_Speed
7 6 5 4 4 3 3 2 2 2 2 3 3 3 3 3 3 3 3 3 3 3 3 3 2 2 1 1 1 1 2 3 3 1 2 2 3 5 6 8 9 8 8
7 6 5 4 4 4 3 3 3 3 3 3 3 4 4 3 3 3 3 3 3 3 3 3 3 2 3 2 2 2 2 2 4 4 2 2 3 4 5 5 6 7 7
7 6 6 5 4 4 3 3 3 3 4 4 4 4 3 3 3 2 3 3 3 3 3 3 3 3 3 3 3 3 2 3 3 5 3 2 2 3 4 4 4 4 5
7 7 6 5 5 5 4 4 4 4 4 4 4 3 3 3 3 3 3 4 4 4 4 4 4 4 3 3 3 3 4 4 4 5 4 3 2 2 3 3 2 1 1
8 7 6 5 5 5 4 4 4 4 4 4 4 4 3 3 3 4 4 4 5 5 5 5 5 7 6 4 4 3 4 4 4 4 3 3 2 2 2 2 3 1 1
8 7 6 6 6 5 5 5 5 4 4 5 5 5 4 4 5 6 5 4 4 5 4 4 5 7 8 8 7 7 6 5 4 4 3 3 2 1 2 3 3 2 0
8 7 7 7 6 5 6 5 5 4 5 5 5 5 5 4 6 7 7 5 5 4 4 3 4 4 5 5 7 8 7 6 6 5 4 3 3 2 3 2 2 2 2
7 7 7 7 6 6 6 5 5 4 5 5 5 5 5 5 6 7 7 6 5 4 4 4 4 4 4 5 5 5 5 4 3 3 3 2 2 3 3 3 3 2 2
7 6 6 7 7 6 6 5 4 5 5 4 4 5 5 4 5 7 7 5 5 4 4 5 5 4 5 7 6 5 5 4 6 7 5 5 5 5 5 4 3 3 1
6 6 6 6 6 6 6 5 4 5 5 5 5 4 4 3 5 6 7 4 4 4 3 4 5 5 5 6 5 4 4 2 3 4 5 5 5 5 5 4 4 3 2
7 7 6 6 6 6 5 5 5 5 5 5 5 4 3 3 4 6 6 4 4 3 2 1 1 3 4 4 4 3 2 2 2 3 3 3 3 2 2 2 3 3 3
7 7 6 5 5 5 5 5 5 6 6 5 4 3 2 2 3 4 6 5 5 4 2 1 0 2 3 4 2 2 3 4 3 3 2 1 1 1 1 1 1 2 2
7 6 6 5 4 4 5 5 4 5 4 4 4 3 1 1 1 3 5 5 5 3 2 2 1 2 3 2 3 3 3 3 3 2 1 1 1 1 0 1 2 2 2
7 6 5 5 4 4 3 3 4 4 5 5 5 4 3 2 1 1 1 2 3 2 1 1 1 2 3 2 2 2 2 2 2 2 2 1 1 1 1 0 1 1 2
7 6 5 5 5 4 3 2 3 3 5 6 5 5 5 4 5 5 5 3 2 2 2 2 2 2 1 1 1 1 1 1 1 1 1 0 0 0 1 1 1 1 1
6 5 5 5 4 4 4 3 4 1 2 6 7 7 4 5 7 7 6 6 5 5 4 2 1 1 1 2 1 1 1 1 1 1 1 1 1 1 1 1 0 1 1
7 6 5 5 5 4 5 5 3 2 3 2 5 7 7 8 8 8 6 5 5 6 3 2 2 2 2 2 2 2 2 2 1 1 1 1 1 1 1 0 0 1 1
6 6 6 5 5 5 5 4 4 5 3 1 1 4 7 7 7 7 6 5 2 2 2 3 3 3 3 3 3 3 2 1 1 1 1 1 1 1 1 1 1 2 2
5 4 4 4 4 5 5 4 4 4 4 3 1 1 3 4 4 5 6 3 3 3 3 3 4 4 3 3 3 3 3 2 2 2 1 1 1 1 1 2 2 2 1
4 6 6 5 4 4 4 4 4 4 4 4 4 4 3 3 2 3 4 3 4 4 4 4 4 4 3 3 3 3 2 2 2 2 2 2 2 2 2 2 2 2 2
4 4 6 4 4 5 5 5 5 5 5 5 5 5 7 5 5 5 5 5 5 5 5 4 4 3 3 3 3 3 4 3 3 3 2 2 2 2 2 2 2 2 2
4 4 4 4 4 4 4 4 4 5 5 5 3 3 7 4 4 4 5 5 5 5 5 4 3 3 4 4 4 4 3 3 3 3 3 3 3 3 2 2 2 2 2
4 4 4 3 3 4 4 3 3 4 4 5 4 4 5 5 5 4 4 4 3 4 5 5 4 4 4 4 5 5 4 3 4 4 3 3 3 2 2 2 2 2 2
4 4 4 3 3 3 4 3 3 3 4 4 4 4 5 5 5 5 5 4 3 4 5 6 6 5 6 5 5 6 6 6 6 5 5 4 3 3 2 2 2 3 3
4 4 4 4 4 4 4 3 3 4 4 4 4 4 4 4 4 4 4 4 4 4 5 6 6 6 7 7 6 6 6 6 6 5 5 4 3 3 2 2 2 2 3
3 3 3 3 3 4 4 4 4 4 3 3 4 4 4 4 4 3 3 3 3 3 4 5 7 7 7 7 7 7 7 6 6 5 4 3 2 2 2 2 3 3 3
Wind_Direction
169 165 157 159 159 148 137 132 127 111 103 97 99 96 83 72 76 84 80 76 70 39 24 36 15 13 30 25 65 100 122 137 151 128 74 96 95 103 103 97 94 95 93
168 160 158 156 149 142 139 137 129 116 106 112 106 96 90 81 77 89 87 75 72 53 30 33 13 30 40 35 63 82 100 121 140 134 99 87 90 118 118 111 102 98 100
158 152 152 152 146 144 143 138 121 111 107 106 107 102 96 86 82 82 97 87 78 67 53 49 28 47 46 46 65 78 86 96 113 129 120 103 97 119 109 104 102 92 100
147 148 152 156 154 150 142 130 117 112 110 111 111 111 105 92 84 83 89 85 77 68 61 59 57 65 66 66 76 79 94 96 101 113 116 111 107 117 116 118 102 69 91
143 143 148 149 145 137 131 122 115 112 111 108 103 89 86 90 87 92 94 93 83 72 58 54 64 73 74 79 94 102 106 108 109 114 120 110 106 118 139 151 132 111 39
144 147 144 138 134 129 124 120 115 106 98 97 96 91 82 82 85 93 99 91 85 80 71 59 66 64 67 69 81 92 109 123 130 128 131 134 154 151 146 147 138 124 191
145 147 147 143 138 138 133 121 117 114 104 98 97 96 89 79 87 93 97 100 95 91 84 76 76 67 68 70 69 66 68 89 116 137 138 157 164 181 154 141 148 154 192
141 145 146 144 143 140 131 130 128 122 118 114 108 106 98 81 84 92 100 95 92 84 81 87 86 66 69 86 81 65 53 49 71 103 136 159 160 164 163 159 149 122 59
137 141 145 145 146 144 144 145 139 129 123 119 123 116 104 84 87 97 101 97 91 76 72 77 88 81 73 89 89 78 55 31 54 77 91 97 104 118 128 113 107 110 83
140 137 136 137 144 148 149 143 133 130 129 123 111 112 112 104 98 104 109 109 103 90 68 62 75 86 80 89 100 99 85 42 55 61 58 58 65 77 102 127 146 140 140
137 131 129 132 137 140 139 139 134 130 125 120 115 109 111 113 111 114 120 118 128 122 109 78 38 77 84 88 102 119 144 142 104 88 69 44 31 33 46 101 150 151 157
131 129 127 132 138 135 131 136 135 139 135 133 124 109 91 101 114 126 128 128 134 131 144 168 191 85 79 76 81 89 101 103 101 84 71 41 15 345 331 329 162 182 195
130 129 128 126 121 128 139 149 147 150 152 154 152 152 147 91 96 118 132 135 134 132 163 173 143 87 64 53 47 77 97 104 107 106 118 255 262 254 307 20 31 44 33
140 136 133 133 127 122 129 145 157 168 170 169 171 175 171 159 155 130 125 121 117 99 86 63 68 62 53 31 29 56 80 130 146 162 202 249 313 23 18 40 61 43 31
143 145 144 145 146 134 119 121 160 184 188 178 184 180 173 184 212 191 166 167 173 169 122 72 57 52 43 29 16 10 33 73 116 146 150 127 82 89 298 314 95 94 98
149 154 157 156 151 145 137 99 46 97 164 173 175 172 185 189 181 176 171 169 166 149 122 115 157 186 187 191 196 241 263 230 219 193 180 172 178 209 257 295 94 138 181
161 166 163 161 162 163 160 156 147 44 57 128 181 178 177 175 173 172 171 169 166 149 136 177 202 208 207 205 201 202 221 229 211 192 200 209 198 195 196 224 195 167 221
161 165 165 170 172 173 174 173 170 170 172 223 266 202 188 182 178 173 158 132 131 154 188 197 204 207 206 203 201 201 211 209 191 198 218 224 196 180 195 222 214 206 219
163 169 172 173 175 174 173 173 179 182 184 185 183 235 201 187 181 178 157 162 185 203 210 209 207 205 208 204 199 195 191 194 190 183 198 212 205 191 212 232 233 242 218
170 168 163 164 167 170 173 175 182 188 189 189 194 196 166 148 176 190 195 199 198 209 212 213 214 208 203 198 191 186 190 199 198 199 213 223 220 205 216 229 225 225 228
163 165 157 154 169 178 181 187 191 190 194 197 203 195 175 183 198 200 203 207 208 212 212 212 212 211 201 190 188 188 189 199 201 203 209 221 221 221 231 229 227 222 225
160 158 160 165 172 176 181 187 184 189 194 193 197 189 186 193 200 209 212 216 216 214 209 201 199 203 195 183 181 183 189 197 208 209 215 226 230 233 233 230 234 236 238
152 155 160 167 174 174 169 172 178 183 189 194 192 184 187 204 207 209 214 220 217 213 205 195 194 200 189 178 177 175 177 195 209 210 212 225 230 233 233 234 236 242 250
156 161 168 173 171 170 173 179 184 188 190 194 193 191 193 205 209 208 209 214 211 204 199 190 184 181 177 177 181 187 193 203 210 214 207 207 214 221 222 232 240 245 246
157 163 170 175 175 178 183 189 193 196 196 196 193 192 190 195 202 202 201 202 195 196 190 183 179 180 185 192 196 204 212 214 217 216 211 201 202 212 217 228 237 251 256
166 172 177 180 182 185 188 194 197 193 193 191 191 192 185 185 192 194 193 190 191 192 186 183 183 187 194 205 212 215 216 218 220 213 201 199 194 213 227 239 248 251 266
Height
1551 1552 1552 1552 1552 1552 1552 1551 1551 1550 1550 1549 1549 1549 1548 1548 1547 1546 1546 1546 1545 1545 1545 1545 1545 1544 1544 1544 1544 1544 1544 1545 1545 1546 1546 1547 1547 1547 1547 1547 1547 1547 1546
1550 1551 1551 1552 1552 1551 1551 1550 1550 1549 1549 1549 1548 1548 1547 1547 1547 1546 1545 1545 1545 1544 1544 1544 1544 1544 1543 1543 1543 1543 1543 1543 1543 1544 1544 1545 1545 1546 1546 1546 1546 1546 1546
1549 1550 1550 1551 1551 1551 1550 1550 1549 1549 1548 1548 1548 1547 1547 1546 1546 1546 1545 1545 1544 1544 1544 1543 1543 1543 1543 1542 1542 1542 1542 1542 1542 1542 1543 1544 1545 1545 1545 1546 1546 1545 1545
1548 1548 1549 1549 1550 1550 1550 1549 1549 1548 1548 1548 1547 1547 1547 1546 1546 1545 1545 1545 1544 1544 1544 1543 1543 1543 1542 1542 1542 1541 1541 1541 1542 1542 1542 1543 1544 1544 1545 1545 1545 1545 1545
1546 1547 1547 1548 1549 1549 1549 1548 1548 1548 1548 1548 1547 1547 1547 1546 1546 1546 1545 1545 1545 1544 1544 1543 1543 1543 1542 1542 1541 1541 1541 1541 1541 1541 1542 1543 1543 1543 1544 1544 1544 1545 1545
1545 1546 1547 1547 1547 1548 1548 1548 1548 1548 1547 1547 1547 1547 1547 1546 1546 1546 1545 1545 1545 1544 1544 1543 1543 1543 1542 1542 1541 1541 1541 1541 1541 1541 1541 1542 1542 1543 1543 1544 1544 1544 1544
1544 1545 1545 1546 1547 1547 1547 1548 1547 1547 1547 1547 1547 1547 1546 1546 1546 1546 1545 1545 1545 1545 1544 1543 1543 1542 1542 1542 1541 1541 1541 1541 1541 1541 1541 1541 1542 1542 1543 1543 1543 1543 1543
1542 1543 1544 1545 1545 1546 1547 1547 1547 1547 1547 1547 1547 1546 1546 1546 1545 1545 1545 1545 1545 1544 1544 1544 1543 1543 1542 1542 1542 1541 1541 1541 1541 1541 1541 1541 1542 1542 1542 1542 1542 1543 1543
1540 1541 1542 1543 1544 1545 1546 1546 1546 1546 1546 1546 1546 1546 1546 1546 1545 1545 1545 1545 1545 1544 1544 1544 1544 1543 1543 1543 1542 1542 1541 1542 1542 1542 1542 1542 1542 1542 1542 1542 1542 1542 1542
1538 1540 1541 1542 1543 1544 1544 1545 1545 1545 1545 1545 1545 1546 1546 1545 1545 1545 1545 1545 1545 1544 1544 1544 1544 1544 1543 1543 1543 1542 1542 1542 1542 1542 1542 1542 1542 1542 1542 1542 1541 1541 1541
1536 1537 1539 1541 1542 1543 1543 1543 1544 1544 1544 1544 1544 1545 1545 1545 1545 1545 1545 1545 1545 1545 1544 1544 1544 1544 1544 1544 1544 1543 1543 1543 1543 1542 1542 1542 1542 1542 1541 1541 1541 1541 1540
1535 1536 1538 1539 1540 1541 1541 1542 1542 1542 1542 1543 1543 1544 1544 1544 1544 1544 1545 1545 1545 1545 1544 1545 1545 1545 1544 1544 1544 1544 1544 1544 1543 1543 1543 1542 1542 1542 1542 1541 1541 1540 1540
1534 1535 1536 1537 1538 1539 1540 1540 1540 1541 1541 1541 1542 1542 1543 1543 1543 1543 1544 1544 1544 1544 1544 1545 1545 1545 1545 1545 1545 1544 1544 1544 1544 1544 1543 1543 1543 1542 1542 1541 1541 1540 1540
1532 1532 1534 1535 1536 1537 1538 1538 1539 1539 1539 1540 1540 1540 1541 1541 1542 1542 1543 1543 1544 1544 1544 1544 1545 1545 1545 1545 1545 1545 1544 1544 1544 1543 1543 1543 1543 1542 1542 1541 1541 1540 1539
1529 1530 1531 1533 1534 1535 1536 1536 1537 1538 1538 1539 1539 1539 1539 1540 1541 1542 1542 1542 1543 1544 1544 1544 1544 1545 1545 1544 1545 1544 1544 1544 1543 1543 1543 1543 1542 1542 1542 1541 1540 1539 1539
1527 1528 1529 1530 1532 1533 1534 1534 1535 1536 1536 1537 1538 1538 1538 1539 1539 1540 1541 1542 1542 1543 1543 1543 1544 1544 1544 1543 1543 1543 1543 1543 1543 1543 1542 1542 1541 1541 1541 1540 1540 1539 1538
1525 1526 1527 1528 1529 1530 1532 1533 1533 1534 1535 1535 1536 1536 1537 1538 1538 1539 1539 1540 1541 1542 1542 1542 1542 1542 1542 1542 1542 1542 1542 1542 1542 1542 1541 1541 1540 1540 1540 1539 1538 1538 1537
1523 1524 1525 1526 1527 1528 1529 1530 1531 1532 1532 1533 1534 1535 1535 1536 1537 1538 1538 1539 1539 1540 1540 1540 1541 1541 1541 1541 1541 1541 1540 1540 1540 1540 1539 1539 1539 1538 1538 1537 1537 1536 1535
1521 1522 1523 1524 1525 1525 1526 1527 1529 1529 1530 1531 1531 1532 1533 1534 1535 1536 1536 1537 1537 1538 1538 1538 1538 1539 1539 1539 1539 1538 1538 1538 1538 1538 1537 1537 1536 1536 1536 1535 1535 1534 1533
1519 1520 1521 1521 1522 1523 1523 1525 1526 1527 1528 1528 1529 1530 1531 1531 1532 1533 1533 1534 1535 1535 1536 1536 1536 1536 1536 1536 1536 1536 1536 1535 1535 1535 1535 1534 1534 1533 1533 1532 1532 1531 1530
1516 1517 1518 1519 1519 1520 1521 1521 1522 1523 1524 1525 1526 1527 1528 1529 1530 1530 1531 1531 1532 1532 1533 1533 1533 1533 1533 1533 1533 1533 1533 1532 1532 1532 1531 1531 1530 1530 1529 1529 1528 1528 1527
1514 1515 1516 1516 1517 1518 1519 1519 1520 1521 1521 1522 1523 1524 1525 1526 1527 1528 1528 1529 1529 1529 1530 1530 1530 1531 1531 1531 1530 1530 1530 1529 1529 1528 1528 1527 1527 1526 1525 1525 1524 1524 1523
1512 1513 1514 1514 1515 1516 1516 1517 1517 1518 1519 1519 1520 1522 1522 1523 1524 1525 1525 1525 1526 1526 1526 1527 1527 1527 1527 1527 1527 1527 1526 1526 1525 1524 1524 1523 1523 1522 1521 1521 1520 1519 1519
1510 1511 1512 1512 1513 1513 1513 1514 1515 1516 1516 1517 1518 1519 1520 1520 1521 1521 1522 1522 1522 1523 1523 1523 1523 1523 1524 1524 1523 1523 1522 1522 1521 1521 1520 1519 1519 1518 1517 1517 1516 1515 1515
1508 1509 1509 1510 1510 1511 1511 1512 1512 1513 1514 1514 1515 1516 1517 1518 1518 1518 1518 1518 1519 1519 1519 1519 1520 1520 1520 1520 1520 1519 1519 1518 1517 1516 1516 1515 1515 1514 1513 1512 1512 1511 1511
1506 1506 1507 1507 1508 1508 1509 1510 1510 1511 1511 1512 1513 1513 1514 1514 1515 1515 1515 1515 1515 1515 1515 1516 1516 1516 1516 1516 1516 1515 1514 1514 1513 1512 1511 1511 1510 1509 1509 1508 1507 1507 1506